Main page
METAR-TAF:

METAR-TAF

Airports :

Naxos Island National Airport

Naxos, Greece

latitude: 37-04-47N, longitude: 025-22-01E, elevation: 3 m

Current weather observation

The report was made 50 minutes ago, at 08:50 UTC
Wind 10 kt from the North
Temperature 26°C
Humidity 58%
Pressure 1009 hPa
Visibility 10 km or more
no clouds below 1500 m and no cumulonimbus

METAR: LGNX 240850Z 01010KT CAVOK 26/17 Q1009

Time: 12:40 (09:40 UTC)


TAF: missing

Weather observations and forecasts of more than 4000 airports (METAR and TAF reports).

The available stations are represented by yellow and red dots on the map.

Hover mouse over dot to see the name of the station.

Then click to see weather observations and forecasts.

To change the map : click on the green buttons with a black cross to zoom in, on the green button with a dash to zoom out, or on the green arrows for adjacent maps.


METAR-TAF: